[[{"header":{"parameterUnit":"m.s-1","parameterCategory":1,"la1":30.2991,"la2":30.254,"lo1":-89.0895,"lo2":-89.0444,"dx":0.0017,"dy":0.0017,"nx":28,"ny":28,"refTime":"2023-01-07T03:00:00:Z","depth":0,"parameterNumber":2,"parameterNumberName":"U-component_of_WINDS"},"data":[0,0,0,0,0,0,0,0,0,0,0,0,0,0,0,0,0,0,0,0,0,0,0,0,0,0,0,0,0,0,0,0,0,0,0,0,0,0,0,0,0,0,0,0,0,0,0,0,0,0,0,0,0,0,0,0,0,0,0.2994,0.2995,0,0.3087,0.3088,0.3089,0.311,0.3109,0.3109,0.3108,0.3204,0.3207,0.321,0,0,0,0,0,0,0,0,0,0,0,0,0,0.2834,0.2837,0.2994,0.2995,0.2996,0.3087,0.3088,0.309,0.311,0.3109,0.3109,0.3108,0.3203,0.3206,0.321,0,0,0,0,0,0,0,0,0,0,0,0,0,0.2913,0.2838,0.2994,0.3018,0.3021,0.3087,0.3088,0.309,0.311,0.3109,0.3108,0.3107,0.3201,0.3206,0.3211,0.326,0,0,0.3225,0.3227,0,0,0,0,0,0,0,0,0.2908,0.2919,0.3013,0.3016,0.302,0.3086,0.3067,0.3147,0.3111,0.3076,0.3108,0.3107,0.3165,0.3173,0.3193,0.3264,0.3268,0.3225,0.3228,0.323,0.3232,0,0,0,0,0,0,0,0.2903,0.2915,0.3031,0.3014,0.3018,0.3024,0.3034,0.3082,0.3125,0.3079,0.3081,0.3092,0.3167,0.3188,0.3195,0.327,0.3225,0.323,0.3232,0.3234,0.3386,0.3387,0,0,0,0,0,0,0.2893,0.291,0.3028,0.3034,0.296,0.3027,0.3039,0.3066,0.3125,0.3133,0.3092,0.3092,0.318,0.3189,0.3198,0.326,0.323,0.3235,0.3238,0.3385,0.3387,0.3388,0,0,0,0,0,0,0.289,0.2903,0.3024,0.2972,0.2988,0.3031,0.3061,0.3068,0.3089,0.3135,0.3142,0.3106,0.318,0.3192,0.3244,0.3263,0.3237,0.3241,0.3384,0.3386,0.3387,0.3383,0,0,0,0,0,0,0.2885,0.2902,0.2921,0.2973,0.2991,0.3068,0.3063,0.3071,0.3097,0.3098,0.315,0.3157,0.318,0.3237,0.3249,0.327,0.3245,0.3382,0.3385,0.3387,0.3382,0.3384,0.3387,0,0,0,0,0,0.2879,0.2916,0.2922,0.2936,0.3016,0.307,0.308,0.3106,0.3099,0.3118,0.3148,0.3156,0.3259,0.3242,0.3256,0.3278,0.3381,0.3384,0.3386,0.338,0.3384,0.3387,0,0,0,0,0,0,0.2866,0.2924,0.2931,0.2985,0.3022,0.3073,0.3098,0.3108,0.3148,0.3147,0.3177,0.3189,0.3239,0.3264,0.3244,0.3329,0.332,0.3325,0.3311,0.3314,0.3317,0.331,0.3249,0,0,0,0,0,0.2869,0.2909,0.2957,0.3,0.3019,0.3055,0.308,0.3096,0.3136,0.3152,0.3185,0.3223,0.3264,0.3291,0.3331,0.3385,0.3397,0.3407,0.341,0.3412,0.3416,0.3447,0.3452,0.3397,0.3397,0.3397,0,0,0.2877,0.2913,0.2936,0.2999,0.3029,0.3069,0.3068,0.311,0.314,0.3158,0.321,0.3235,0.328,0.3333,0.3359,0.3355,0.3434,0.3415,0.3416,0.342,0.345,0.3455,0.346,0.3398,0.3398,0.3398,0,0,0.2911,0.2943,0.2983,0.3013,0.306,0.3084,0.3093,0.3142,0.316,0.3213,0.3227,0.3262,0.3333,0.3364,0.3389,0.3435,0.3444,0.3447,0.3461,0.349,0.3494,0.3498,0.3515,0.352,0.3451,0.3451,0.3451,0,0.2915,0.2975,0.3002,0.3043,0.307,0.3088,0.3129,0.3158,0.3215,0.3233,0.3229,0.3317,0.3348,0.341,0.3421,0.344,0.3452,0.3441,0.3492,0.3496,0.35,0.3516,0.3522,0.3451,0.3451,0.3451,0.3451,0,0.2977,0.3019,0.3046,0.3101,0.3131,0.3172,0.3204,0.3232,0.3245,0.327,0.3323,0.3361,0.3409,0.3425,0.3439,0.3488,0.3485,0.3486,0.3477,0.3505,0.352,0.3527,0.3452,0.3452,0.3452,0.3452,0,0,0.3006,0.3075,0.3084,0.3109,0.3162,0.3195,0.3236,0.3284,0.3306,0.3345,0.3381,0.344,0.3441,0.3469,0.3487,0.3513,0.3546,0.3511,0.3512,0.3516,0.3603,0.3602,0.3609,0.3553,0.3554,0.3555,0.3599,0,0.3046,0.3122,0.3147,0.3209,0.3248,0.3265,0.3302,0.3338,0.3362,0.3398,0.3424,0.3466,0.3464,0.3481,0.3508,0.3537,0.3564,0.3534,0.3586,0.3587,0.3574,0.3617,0.3616,0.3656,0.3605,0.3606,0.3607,0,0.3104,0.3144,0.321,0.3257,0.3275,0.3307,0.3352,0.3387,0.3428,0.3444,0.3475,0.3491,0.3535,0.3524,0.3585,0.3564,0.3587,0.3604,0.3606,0.3612,0.3599,0.3624,0.3669,0.3675,0.3617,0.3616,0.3616,0,0.3118,0.3188,0.3237,0.3258,0.3314,0.3337,0.3361,0.3401,0.3428,0.3468,0.3486,0.353,0.3554,0.3588,0.3615,0.3605,0.3674,0.3665,0.3688,0.3687,0.3702,0.37,0.3752,0.3716,0.3716,0.3716,0.3716,0,0.316,0.32,0.3244,0.3274,0.3319,0.3347,0.3391,0.3416,0.3452,0.3487,0.3505,0.3538,0.3571,0.3608,0.363,0.3677,0.3688,0.3702,0.3707,0.37,0.3698,0.3715,0.3713,0.3718,0.3717,0.3717,0.3717,0,0.3184,0.3214,0.3269,0.3318,0.3331,0.3362,0.3405,0.3434,0.3459,0.3503,0.3515,0.3554,0.3598,0.3629,0.3686,0.37,0.3751,0.3756,0.3737,0.374,0.3761,0.3759,0.3825,0.3835,0.3793,0.3793,0.3794,0,0.3209,0.324,0.3293,0.3318,0.3342,0.3382,0.341,0.3439,0.3467,0.3516,0.354,0.3585,0.3624,0.3694,0.3727,0.377,0.3776,0.3797,0.3783,0.3775,0.3777,0.3774,0.3778,0.3799,0.3799,0.3799,0.3799,0,0.325,0.3264,0.3303,0.3348,0.338,0.3416,0.3453,0.3472,0.3508,0.3538,0.3584,0.3614,0.3672,0.3717,0.3764,0.3789,0.38,0.3803,0.3811,0.3804,0.3792,0.3799,0.3743,0.3802,0.3802,0.3801,0.3801,0.3801,0.3275,0.3303,0.3345,0.3388,0.3419,0.3453,0.3483,0.3511,0.355,0.36,0.3615,0.3662,0.3703,0.3767,0.3793,0.383,0.3828,0.3839,0.3842,0.3844,0.3844,0.3786,0.3839,0.3839,0.3839,0.3839,0.3839,0,0.3317,0.3345,0.3384,0.3435,0.3469,0.3477,0.3517,0.3545,0.3587,0.3624,0.3661,0.3713,0.3757,0.3794,0.3839,0.3862,0.3868,0.3873,0.3871,0.3877,0.3843,0.3832,0.3867,0.3867,0.3867,0.3867,0.3867,0.3867,0.3343,0.3391,0.341,0.3474,0.3501,0.3548,0.3571,0.3602,0.3632,0.369,0.3726,0.375,0.3787,0.3835,0.3875,0.3885,0.39,0.3904,0.3915,0.3883,0.3879,0.3876,0.3866,0.3907,0.3907,0.3945,0.3946,0.3946]},{"header":{"parameterUnit":"m.s-1","parameterCategory":1,"la1":30.2991,"la2":30.254,"lo1":-89.0895,"lo2":-89.0444,"dx":0.0017,"dy":0.0017,"nx":28,"ny":28,"refTime":"2023-01-07T03:00:00:Z","depth":0,"parameterNumber":3,"parameterNumberName":"V-component_of_WINDS"},"data":[0,0,0,0,0,0,0,0,0,0,0,0,0,0,0,0,0,0,0,0,0,0,0,0,0,0,0,0,0,0,0,0,0,0,0,0,0,0,0,0,0,0,0,0,0,0,0,0,0,0,0,0,0,0,0,0,0,0,2.2322,2.2322,0,2.2311,2.2311,2.2311,2.2293,2.2293,2.2292,2.2292,2.2281,2.2281,2.2281,0,0,0,0,0,0,0,0,0,0,0,0,0,2.2325,2.2326,2.2322,2.2322,2.2321,2.2311,2.2311,2.2311,2.2293,2.2293,2.2292,2.2292,2.2281,2.2281,2.2281,0,0,0,0,0,0,0,0,0,0,0,0,0,2.232,2.2326,2.2322,2.2311,2.231,2.2311,2.2311,2.2311,2.2293,2.2293,2.2292,2.2292,2.2281,2.2281,2.2281,2.2291,0,0,2.2281,2.2281,0,0,0,0,0,0,0,0,2.2321,2.232,2.2313,2.2312,2.2311,2.2303,2.2308,2.2304,2.2293,2.23,2.2292,2.2292,2.2289,2.2288,2.2287,2.229,2.229,2.2281,2.2281,2.2281,2.2281,0,0,0,0,0,0,0,2.2321,2.232,2.2317,2.2313,2.2312,2.2307,2.2306,2.2307,2.2297,2.2299,2.2298,2.2297,2.2288,2.2287,2.2287,2.2289,2.2281,2.2281,2.2281,2.2281,2.2299,2.23,0,0,0,0,0,0,2.2323,2.2321,2.2318,2.2317,2.2315,2.2307,2.2306,2.2306,2.2297,2.2295,2.2297,2.2296,2.2287,2.2287,2.2286,2.2297,2.2281,2.2281,2.2281,2.2299,2.2299,2.23,0,0,0,0,0,0,2.2323,2.2323,2.2318,2.2319,2.2318,2.2308,2.2308,2.2306,2.2305,2.2296,2.2294,2.2298,2.2287,2.2286,2.2289,2.2296,2.2281,2.2281,2.2298,2.2299,2.23,2.2318,0,0,0,0,0,0,2.2323,2.2323,2.2327,2.2319,2.2318,2.2322,2.2308,2.2306,2.2305,2.2304,2.2296,2.2294,2.2286,2.229,2.2289,2.2296,2.2281,2.2297,2.2298,2.2299,2.2317,2.2319,2.2321,0,0,0,0,0,2.2324,2.2333,2.2327,2.2327,2.2323,2.2323,2.2322,2.2313,2.2306,2.231,2.2303,2.2295,2.2295,2.229,2.229,2.2296,2.2297,2.2298,2.2299,2.2316,2.2319,2.2321,0,0,0,0,0,0,2.2342,2.2332,2.2325,2.2332,2.2329,2.232,2.2324,2.2316,2.2315,2.2313,2.2301,2.23,2.2305,2.2301,2.2295,2.2305,2.2295,2.2296,2.2307,2.231,2.2312,2.2313,2.2281,0,0,0,0,0,2.2347,2.2348,2.2339,2.2346,2.2344,2.2335,2.2334,2.2327,2.2323,2.2321,2.2315,2.2311,2.231,2.231,2.2308,2.2316,2.2314,2.232,2.2322,2.2324,2.2325,2.2328,2.2331,2.2303,2.2303,2.2303,0,0,2.2357,2.2352,2.2353,2.2349,2.2346,2.2347,2.2333,2.2335,2.2336,2.2321,2.2324,2.232,2.2314,2.2319,2.2321,2.2316,2.2332,2.2326,2.2327,2.2327,2.233,2.2332,2.2335,2.2304,2.2304,2.2304,0,0,2.2376,2.2372,2.2378,2.2374,2.2368,2.2362,2.2363,2.2355,2.2351,2.2354,2.2343,2.2343,2.2342,2.2338,2.2336,2.2353,2.2344,2.2352,2.2365,2.2368,2.237,2.2372,2.2377,2.238,2.2354,2.2354,2.2354,0,2.239,2.2391,2.2381,2.2384,2.2382,2.2369,2.2374,2.237,2.2365,2.2364,2.2358,2.2356,2.2351,2.2355,2.2359,2.2358,2.2358,2.2354,2.237,2.2372,2.2374,2.2379,2.2381,2.2355,2.2355,2.2354,2.2354,0,2.2408,2.2409,2.2414,2.2409,2.2407,2.2411,2.2401,2.2401,2.2394,2.2388,2.239,2.2384,2.2381,2.2381,2.2374,2.2384,2.238,2.2373,2.2362,2.2378,2.2382,2.2384,2.2356,2.2356,2.2355,2.2355,0,0,2.244,2.2428,2.243,2.2427,2.2419,2.242,2.2422,2.2419,2.2419,2.2415,2.2417,2.2416,2.2408,2.2406,2.2398,2.2401,2.2414,2.2393,2.2392,2.2397,2.2423,2.243,2.2432,2.2408,2.2408,2.2409,2.2424,0,2.2457,2.2462,2.2452,2.2459,2.2459,2.2446,2.2448,2.2443,2.2437,2.2436,2.2429,2.2429,2.2419,2.2417,2.2419,2.2412,2.2419,2.2411,2.2409,2.2409,2.2411,2.2435,2.2441,2.2456,2.2426,2.2426,2.2426,0,2.2479,2.2476,2.2483,2.2474,2.2474,2.2476,2.2472,2.2471,2.2465,2.2461,2.2457,2.2448,2.245,2.2439,2.2441,2.2435,2.2434,2.243,2.243,2.243,2.2419,2.2435,2.246,2.2463,2.2429,2.2429,2.2429,0,2.2502,2.2499,2.2503,2.25,2.249,2.2492,2.2488,2.2481,2.2479,2.2476,2.2474,2.2471,2.2469,2.2466,2.2456,2.2449,2.2458,2.2447,2.2454,2.2454,2.2457,2.2457,2.2482,2.2456,2.2456,2.2456,2.2455,0,2.2523,2.2527,2.2512,2.2515,2.2519,2.2507,2.2512,2.2506,2.25,2.25,2.2488,2.2489,2.2475,2.2474,2.2466,2.2468,2.2467,2.2463,2.2461,2.2464,2.2465,2.2464,2.2462,2.2456,2.2456,2.2456,2.2456,0,2.2549,2.2539,2.2542,2.2532,2.2529,2.2533,2.2524,2.2525,2.2518,2.2518,2.2518,2.2506,2.2504,2.2493,2.2489,2.2483,2.2488,2.2484,2.249,2.2489,2.2496,2.2496,2.2522,2.2525,2.2496,2.2496,2.2497,0,2.2563,2.2566,2.2556,2.2556,2.2552,2.2551,2.2549,2.2537,2.2536,2.2529,2.2531,2.2527,2.2524,2.2521,2.2512,2.2508,2.2504,2.2513,2.2503,2.2506,2.2504,2.2504,2.2504,2.2516,2.2516,2.2516,2.2517,0,2.259,2.2584,2.2583,2.2579,2.2577,2.2573,2.2569,2.2569,2.2556,2.2554,2.2552,2.255,2.2545,2.2541,2.2536,2.2531,2.2521,2.252,2.2521,2.2525,2.2528,2.2526,2.2496,2.2519,2.2519,2.2519,2.2519,2.2519,2.261,2.2612,2.2605,2.2603,2.2599,2.2594,2.2595,2.2587,2.2585,2.258,2.2573,2.2572,2.2564,2.2556,2.2551,2.2549,2.2544,2.2546,2.2547,2.2547,2.2549,2.2528,2.2548,2.2548,2.2548,2.2548,2.2548,0,2.2636,2.2631,2.2629,2.2623,2.2621,2.2612,2.2607,2.2606,2.2605,2.2598,2.2595,2.2592,2.2589,2.2579,2.2574,2.2575,2.257,2.2574,2.2574,2.2573,2.2554,2.2553,2.2578,2.2578,2.2578,2.2578,2.2578,2.2577,2.2649,2.2652,2.2646,2.2646,2.264,2.2638,2.2636,2.2632,2.2627,2.2624,2.2621,2.2614,2.2607,2.2601,2.2597,2.2594,2.2593,2.2598,2.2594,2.2577,2.2574,2.2571,2.2571,2.2598,2.2598,2.2613,2.2613,2.2613]}]]